Weather in Östersund

Sweden     63˚10′17″N   14˚36′19″E
temp.,
°C
wind,
m/s
gust,
m/s
humid.,
%
clouds,
%
prec.,
mm/h
press.,
hPa
HPBL,
m
2 december, wed
wed201:00−1˚s6117074 0.0 1022446
04:00s5106829 0.0 1020407
07:00s7137155 0.0 1018553
10:00s7147438 0.0 1017596
13:00+1˚s8147358 0.0 1014787
16:00+1˚s81475100 0.0 1011952
19:00+2˚s8147383 0.0 1010971
22:00+2˚s7147467 0.0 10081187
3 december, thu
thu301:00+1˚s8137979 0.0 10071043
04:00+1˚sse7137890 0.0 1006945
07:00sse7137893 0.0 1005973
10:00sse7127896 0.0 1006956
13:00sse7117797 0.0 1006976
16:00−1˚sse71177100 0.0 1006880
19:00−1˚sse61177100 0.0 1006944
22:00sse51079100 0.0 1006902
4 december, fri
fri401:00−1˚se6118298 0.0 1006834
04:00−1˚se61180100 0.0 1005852
07:00−1˚se5118399 0.0 1006861
10:00−1˚ese499498 0.2 1006560
13:00ese389391 0.4 1006503
16:00−1˚ese259798 0.3 1006269
19:00se379697 0.5 1007337
22:00−1˚se3792100 0.0 1007341
5 december, sat
sat501:00−1˚se2695100 0.0 1007281
04:00−1˚ene1299100 0.8 100692
07:00+1˚e1198100 1.6 100642
10:00+1˚sse2497100 0.0 1007135
13:00+1˚sse369178 0.0 1009162
16:00s379111 0.0 1011200
19:00−1˚sse129122 0.0 101378
22:00−1˚n00914 0.0 101475
6 december, sun
sun601:00−1˚n119244 0.0 101581
04:00−1˚ne0194100 0.0 101562
07:00ene2598100 0.1 1016167
10:00+1˚ene2497100 0.5 1016161
13:00+2˚ese3698100 1.1 1016226
16:00+3˚se4996100 0.6 1016348
19:00+3˚ese4996100 0.8 1017327
22:00+3˚se41096100 0.4 1017354